Overview Statistics Trail Chart Weather Telemetry Raw packets
 

This is the latest recevied weather packets stored in our database for station/object VE6HFD-WX. If no packets are shown the sender has not sent any weather packets the latest 10 day(s).

<< 49 50 51 52 53 54 55 >>
Time Temp. Humidity Pressure Rain* Wind** Luminosity Snow
1777702687 8.89° C 69% 1014.6 hPa 0 mm - - -
1777702387 8.89° C 71% 1014.6 hPa 0 mm - - -
1777702057 9.44° C 67% 1014.6 hPa 0 mm - - -
1777701727 10° C 66% 1014.5 hPa 0 mm - - -
1777701427 10° C 67% 1014.4 hPa 0 mm - - -
1777701127 10.56° C 68% 1014.5 hPa 0 mm - - -
1777700797 10.56° C 66% 1014.3 hPa 0 mm - - -
1777700467 10.56° C 67% 1014.4 hPa 0 mm - - -
1777700167 10.56° C 66% 1014.4 hPa 0 mm - - -
1777699837 11.11° C 66% 1014.4 hPa 0 mm - - -
1777699507 11.11° C 66% 1014.3 hPa 0 mm - - -
1777699207 11.11° C 66% 1014.5 hPa 0 mm - - -
1777698877 11.11° C 65% 1014.6 hPa 0 mm - - -
1777698547 11.67° C 64% 1014.5 hPa 0 mm - - -
1777698247 11.11° C 66% 1014.6 hPa 0 mm - - -
1777697917 11.11° C 65% 1014.5 hPa 0 mm - - -
1777697587 11.67° C 64% 1014.6 hPa 0 mm - - -
1777697257 11.67° C 63% 1014.5 hPa 0 mm - - -
1777696957 11.67° C 63% 1014.4 hPa 0 mm - - -
1777696627 11.67° C 63% 1014.4 hPa 0 mm - - -
1777696297 11.67° C 64% 1014.5 hPa 0 mm - - -
1777695967 11.67° C 64% 1014.5 hPa 0 mm - - -
1777695637 12.22° C 63% 1014.4 hPa 0 mm - - -
1777695307 12.22° C 63% 1014.4 hPa 0 mm - - -
1777694977 11.67° C 63% 1014.3 hPa 0 mm - - -

* Rain latest hour (hover to see other rain measurements)
** Current wind speed in m/s (hover to see current wind gust speed)